[[{"header":{"parameterUnit":"m.s-1","parameterCategory":1,"la1":30.2991,"la2":30.254,"lo1":-89.0895,"lo2":-89.0444,"dy":0.0017,"dx":0.0017,"nx":28,"ny":28,"refTime":"2025-12-21T09:00:00:Z","depth":0,"parameterNumber":2,"parameterNumberName":"U-component_of_WINDS"},"data":[0,0,0,0,0,0,0,0,0,0,0,0,0,0,0,0,0,0,0,0,0,0,0,0,0,0,0,0,0,0,0,0,0,0,0,0,0,0,0,0,0,0,0,0,0,0,0,0,0,0,0,0,0,0,0,0,0,0,-3.3555,-3.3556,0,-3.3647,-3.3648,-3.3649,-3.3649,-3.3648,-3.3647,-3.3646,-3.3737,-3.374,-3.3744,0,0,0,0,0,0,0,0,0,0,0,0,0,-3.3382,-3.3385,-3.3555,-3.3556,-3.3558,-3.3646,-3.3648,-3.3649,-3.365,-3.3648,-3.3647,-3.3645,-3.3736,-3.374,-3.3744,0,0,0,0,0,0,0,0,0,0,0,0,0,-3.3463,-3.3386,-3.3555,-3.3569,-3.3571,-3.3646,-3.3648,-3.3649,-3.365,-3.3648,-3.3646,-3.3645,-3.3734,-3.3739,-3.3745,-3.3812,0,0,-3.3761,-3.3763,0,0,0,0,0,0,0,0,-3.3459,-3.347,-3.3566,-3.3568,-3.357,-3.3635,-3.362,-3.3704,-3.365,-3.362,-3.3646,-3.3644,-3.3704,-3.3712,-3.3733,-3.3816,-3.382,-3.3761,-3.3764,-3.3766,-3.3768,0,0,0,0,0,0,0,-3.3453,-3.3466,-3.3591,-3.3567,-3.357,-3.357,-3.358,-3.3636,-3.367,-3.3622,-3.3623,-3.3633,-3.3705,-3.3727,-3.3735,-3.3821,-3.3761,-3.3766,-3.3769,-3.3771,-3.3967,-3.3969,0,0,0,0,0,0,-3.3445,-3.3461,-3.3588,-3.3594,-3.3509,-3.3575,-3.3586,-3.3616,-3.367,-3.3676,-3.3635,-3.3633,-3.3719,-3.3729,-3.3738,-3.3821,-3.3766,-3.3771,-3.3774,-3.3965,-3.3967,-3.397,0,0,0,0,0,0,-3.3441,-3.3456,-3.3585,-3.3528,-3.3544,-3.358,-3.3614,-3.3619,-3.3641,-3.3679,-3.3685,-3.3651,-3.3718,-3.373,-3.3794,-3.3824,-3.3774,-3.3778,-3.3962,-3.3966,-3.3969,-3.3988,0,0,0,0,0,0,-3.3436,-3.3455,-3.348,-3.3528,-3.3547,-3.3639,-3.3615,-3.3622,-3.365,-3.3649,-3.3696,-3.3703,-3.3718,-3.3786,-3.3799,-3.3831,-3.3783,-3.396,-3.3964,-3.3968,-3.3984,-3.3991,-3.3997,0,0,0,0,0,-3.343,-3.3481,-3.3482,-3.3497,-3.358,-3.3641,-3.3652,-3.3669,-3.3653,-3.3679,-3.3704,-3.3701,-3.382,-3.3793,-3.3807,-3.3841,-3.3958,-3.3963,-3.3967,-3.3982,-3.399,-3.3996,0,0,0,0,0,0,-3.3433,-3.3487,-3.3489,-3.3557,-3.3595,-3.3641,-3.3674,-3.3677,-3.3719,-3.3716,-3.3735,-3.3746,-3.3809,-3.3832,-3.3801,-3.391,-3.3887,-3.3895,-3.3893,-3.3901,-3.3907,-3.3899,-3.3787,0,0,0,0,0,-3.3443,-3.3488,-3.3533,-3.3588,-3.3608,-3.3638,-3.3665,-3.3676,-3.3715,-3.3731,-3.376,-3.3798,-3.3845,-3.3874,-3.3918,-3.3989,-3.3999,-3.4019,-3.4025,-3.403,-3.4036,-3.4077,-3.4086,-3.3985,-3.3985,-3.3985,0,0,-3.3461,-3.3496,-3.3523,-3.359,-3.362,-3.3667,-3.3651,-3.37,-3.3736,-3.3738,-3.38,-3.3824,-3.3868,-3.3935,-3.3967,-3.3956,-3.4067,-3.4036,-3.4039,-3.4043,-3.4083,-3.4092,-3.4101,-3.3988,-3.3988,-3.3987,0,0,-3.3518,-3.3549,-3.36,-3.3632,-3.3679,-3.37,-3.3712,-3.376,-3.3776,-3.3839,-3.3842,-3.3885,-3.3963,-3.3995,-3.4021,-3.4096,-3.4095,-3.411,-3.4141,-3.418,-3.4188,-3.4195,-3.4222,-3.4232,-3.4116,-3.4116,-3.4116,0,-3.3535,-3.3606,-3.3626,-3.3676,-3.3706,-3.3713,-3.3765,-3.3795,-3.3854,-3.3874,-3.3862,-3.3963,-3.3993,-3.4069,-3.4087,-3.4109,-3.4124,-3.4103,-3.4186,-3.4193,-3.42,-3.4226,-3.4236,-3.4117,-3.4117,-3.4117,-3.4117,0,-3.3624,-3.3674,-3.3709,-3.3768,-3.3802,-3.3853,-3.3881,-3.3913,-3.3922,-3.3944,-3.401,-3.4047,-3.41,-3.4119,-3.4127,-3.4198,-3.419,-3.4182,-3.4158,-3.4211,-3.4236,-3.4246,-3.412,-3.4119,-3.4119,-3.4118,0,0,-3.3682,-3.3755,-3.3767,-3.3795,-3.385,-3.3888,-3.3941,-3.3994,-3.4022,-3.4064,-3.4108,-3.4177,-3.417,-3.4201,-3.4213,-3.4248,-3.4306,-3.4236,-3.4237,-3.4247,-3.4387,-3.4392,-3.4403,-3.4307,-3.4309,-3.431,-3.4383,0,-3.3745,-3.3839,-3.386,-3.3941,-3.3988,-3.3997,-3.4043,-3.4082,-3.4105,-3.4148,-3.4174,-3.4222,-3.421,-3.4228,-3.4264,-3.4291,-3.4334,-3.4286,-3.4348,-3.435,-3.4336,-3.4416,-3.4421,-3.4488,-3.4393,-3.4395,-3.4396,0,-3.383,-3.3876,-3.3962,-3.4013,-3.4033,-3.4074,-3.4126,-3.4168,-3.4213,-3.4227,-3.4263,-3.4273,-3.4329,-3.4305,-3.4383,-3.435,-3.4377,-3.4395,-3.4398,-3.4403,-3.4375,-3.4423,-3.451,-3.452,-3.4411,-3.441,-3.4409,0,-3.3865,-3.3948,-3.401,-3.4034,-3.4095,-3.4124,-3.4151,-3.4194,-3.4226,-3.4272,-3.4293,-3.4344,-3.4372,-3.4412,-3.4436,-3.4416,-3.4513,-3.449,-3.4527,-3.4526,-3.4544,-3.4543,-3.4636,-3.4564,-3.4564,-3.4563,-3.4563,0,-3.3932,-3.3984,-3.4027,-3.4065,-3.4124,-3.415,-3.4208,-3.4234,-3.4274,-3.4318,-3.433,-3.4371,-3.44,-3.4446,-3.4465,-3.4528,-3.454,-3.4554,-3.4558,-3.4552,-3.4551,-3.4569,-3.4565,-3.4566,-3.4565,-3.4565,-3.4564,0,-3.3979,-3.401,-3.4079,-3.4133,-3.4148,-3.4189,-3.4235,-3.4273,-3.4298,-3.4354,-3.4369,-3.4408,-3.4462,-3.4491,-3.4559,-3.4572,-3.4642,-3.4644,-3.4627,-3.4629,-3.4664,-3.466,-3.4771,-3.4787,-3.4705,-3.4705,-3.4706,0,-3.402,-3.406,-3.412,-3.4151,-3.4179,-3.4228,-3.4261,-3.4289,-3.4323,-3.438,-3.4411,-3.4467,-3.4513,-3.46,-3.4635,-3.4688,-3.4691,-3.4726,-3.4698,-3.4692,-3.4691,-3.4688,-3.4693,-3.473,-3.4731,-3.4732,-3.4732,0,-3.4088,-3.4103,-3.415,-3.4205,-3.4245,-3.4288,-3.4331,-3.4356,-3.4391,-3.4429,-3.4486,-3.4522,-3.4593,-3.4649,-3.4705,-3.4733,-3.4739,-3.4742,-3.4753,-3.4746,-3.4735,-3.4742,-3.464,-3.4738,-3.4737,-3.4737,-3.4737,-3.4737,-3.4133,-3.4171,-3.4219,-3.4273,-3.4309,-3.435,-3.4389,-3.442,-3.4468,-3.4529,-3.4543,-3.4603,-3.465,-3.4727,-3.4757,-3.4805,-3.4798,-3.4814,-3.4818,-3.4821,-3.4823,-3.4729,-3.4816,-3.4815,-3.4815,-3.4815,-3.4815,0,-3.4203,-3.4235,-3.4285,-3.4346,-3.4389,-3.4393,-3.4442,-3.4477,-3.453,-3.4574,-3.462,-3.4687,-3.4742,-3.4783,-3.4839,-3.487,-3.4874,-3.4884,-3.4881,-3.4888,-3.4826,-3.4811,-3.488,-3.488,-3.488,-3.488,-3.488,-3.488,-3.4244,-3.4308,-3.4328,-3.4411,-3.4443,-3.4503,-3.4531,-3.457,-3.4605,-3.4679,-3.4726,-3.4752,-3.4796,-3.4856,-3.4907,-3.4918,-3.4938,-3.4947,-3.4958,-3.4899,-3.4892,-3.4885,-3.4871,-3.4952,-3.4952,-3.5016,-3.5017,-3.5017]},{"header":{"parameterUnit":"m.s-1","parameterCategory":1,"la1":30.2991,"la2":30.254,"lo1":-89.0895,"lo2":-89.0444,"dy":0.0017,"dx":0.0017,"nx":28,"ny":28,"refTime":"2025-12-21T09:00:00:Z","depth":0,"parameterNumber":3,"parameterNumberName":"V-component_of_WINDS"},"data":[0,0,0,0,0,0,0,0,0,0,0,0,0,0,0,0,0,0,0,0,0,0,0,0,0,0,0,0,0,0,0,0,0,0,0,0,0,0,0,0,0,0,0,0,0,0,0,0,0,0,0,0,0,0,0,0,0,0,1.8003,1.8005,0,1.8154,1.8156,1.8158,1.8227,1.8226,1.8226,1.8226,1.8381,1.8385,1.8389,0,0,0,0,0,0,0,0,0,0,0,0,0,1.7777,1.7781,1.8003,1.8005,1.8007,1.8154,1.8156,1.8158,1.8227,1.8226,1.8226,1.8226,1.8379,1.8384,1.8389,0,0,0,0,0,0,0,0,0,0,0,0,0,1.7896,1.7782,1.8003,1.8059,1.8065,1.8153,1.8156,1.8159,1.8227,1.8226,1.8226,1.8226,1.8378,1.8384,1.839,1.8434,0,0,1.841,1.8412,0,0,0,0,0,0,0,0,1.7889,1.7904,1.8049,1.8055,1.8063,1.8171,1.8133,1.8251,1.8227,1.8165,1.8226,1.8226,1.8311,1.8323,1.8352,1.8441,1.8448,1.841,1.8414,1.8417,1.8419,0,0,0,0,0,0,0,1.7881,1.7898,1.8063,1.8051,1.8059,1.8077,1.8094,1.8156,1.8238,1.8171,1.8176,1.8193,1.8315,1.8345,1.8356,1.845,1.841,1.8416,1.842,1.8422,1.8586,1.8586,0,0,0,0,0,0,1.7863,1.7891,1.8058,1.8068,1.7974,1.8082,1.81,1.8137,1.8237,1.8252,1.8193,1.8196,1.8335,1.8348,1.8362,1.8422,1.8417,1.8423,1.8426,1.8585,1.8586,1.8586,0,0,0,0,0,0,1.7858,1.7878,1.8052,1.7981,1.8004,1.8086,1.8126,1.814,1.817,1.8254,1.8269,1.8209,1.8335,1.8353,1.8416,1.8428,1.8426,1.8431,1.8585,1.8585,1.8586,1.854,0,0,0,0,0,0,1.7851,1.7875,1.7892,1.7981,1.8008,1.8103,1.8127,1.8143,1.8181,1.8186,1.8273,1.8287,1.8336,1.8406,1.8422,1.8437,1.8436,1.8584,1.8585,1.8586,1.8541,1.8539,1.8538,0,0,0,0,0,1.7843,1.7872,1.7892,1.7912,1.803,1.8104,1.8119,1.8175,1.8182,1.82,1.8254,1.8285,1.8424,1.8412,1.8431,1.8447,1.8583,1.8585,1.8586,1.8542,1.854,1.8538,0,0,0,0,0,0,1.7783,1.7885,1.7908,1.7967,1.8026,1.8115,1.814,1.8171,1.8229,1.8231,1.8298,1.8317,1.8375,1.8417,1.8403,1.8496,1.8506,1.8511,1.8466,1.8465,1.8464,1.8453,1.8442,0,0,0,0,0,1.7776,1.7827,1.7913,1.7957,1.7986,1.8057,1.8091,1.8129,1.8193,1.8219,1.8277,1.8338,1.8397,1.8433,1.8491,1.8547,1.8569,1.8568,1.8566,1.8565,1.8568,1.8604,1.8606,1.859,1.859,1.859,0,0,1.7763,1.7826,1.7853,1.7947,1.7997,1.8049,1.8078,1.8131,1.817,1.8227,1.8291,1.8336,1.8409,1.847,1.8499,1.8507,1.8578,1.8566,1.8564,1.8569,1.8606,1.8607,1.8608,1.8591,1.8591,1.8591,0,0,1.7767,1.7818,1.7861,1.7911,1.7987,1.8035,1.8046,1.8131,1.8163,1.8228,1.8273,1.8321,1.8418,1.8469,1.8508,1.8533,1.8564,1.855,1.8542,1.8576,1.8577,1.8579,1.859,1.8592,1.8553,1.8553,1.8553,0,1.7741,1.782,1.7879,1.7931,1.7971,1.8025,1.8071,1.8117,1.8207,1.8235,1.8242,1.8367,1.842,1.8495,1.8501,1.853,1.8545,1.854,1.8572,1.8574,1.8576,1.8588,1.8591,1.8551,1.8551,1.8551,1.8552,0,1.7786,1.7841,1.7867,1.7954,1.7998,1.8045,1.8113,1.815,1.8185,1.8232,1.8299,1.8365,1.8438,1.8458,1.8492,1.8539,1.8541,1.8559,1.8571,1.8575,1.8587,1.8591,1.8548,1.8549,1.8549,1.855,0,0,1.7755,1.7876,1.7884,1.7926,1.8015,1.8058,1.811,1.8181,1.8213,1.8274,1.832,1.8403,1.8421,1.8464,1.8505,1.8535,1.8553,1.855,1.8552,1.855,1.8611,1.8598,1.8602,1.8574,1.8575,1.8576,1.8606,0,1.7772,1.7866,1.7921,1.7993,1.8045,1.8099,1.8144,1.8204,1.825,1.8302,1.8353,1.8411,1.8429,1.8457,1.8488,1.8544,1.8567,1.8543,1.8619,1.8621,1.86,1.8608,1.8594,1.8619,1.8611,1.8612,1.8612,0,1.7804,1.7865,1.7942,1.8027,1.8051,1.809,1.8162,1.8211,1.8281,1.8313,1.8363,1.8404,1.8461,1.8468,1.855,1.8532,1.8567,1.8599,1.8601,1.8611,1.8617,1.862,1.8628,1.8632,1.862,1.8619,1.8618,0,1.7775,1.7877,1.7937,1.797,1.8071,1.8098,1.8141,1.8211,1.8251,1.8314,1.8342,1.841,1.8448,1.85,1.8559,1.8558,1.8636,1.8647,1.8665,1.8664,1.868,1.8678,1.8695,1.8699,1.8699,1.8699,1.8699,0,1.7789,1.7834,1.7926,1.7963,1.8016,1.808,1.8131,1.8179,1.8241,1.8289,1.8339,1.8383,1.8458,1.8512,1.8558,1.862,1.8636,1.8665,1.8677,1.8661,1.8658,1.8685,1.8686,1.87,1.87,1.87,1.87,0,1.7766,1.7829,1.7898,1.7988,1.8012,1.8048,1.8126,1.8164,1.8214,1.8274,1.8292,1.837,1.8436,1.85,1.8589,1.862,1.8683,1.8698,1.8659,1.8666,1.8681,1.868,1.8718,1.8727,1.8723,1.8723,1.8723,0,1.7771,1.7808,1.7902,1.7938,1.7981,1.8038,1.808,1.8145,1.8187,1.8271,1.83,1.837,1.843,1.8534,1.8599,1.8667,1.8685,1.8694,1.8696,1.868,1.8688,1.8686,1.8691,1.8693,1.8692,1.8692,1.8692,0,1.7774,1.7804,1.7863,1.7933,1.7982,1.804,1.81,1.8127,1.8204,1.8249,1.8318,1.8364,1.8456,1.8526,1.8602,1.8648,1.8684,1.8691,1.8699,1.8684,1.8661,1.8676,1.8657,1.869,1.869,1.869,1.869,1.869,1.7767,1.7803,1.7876,1.794,1.7992,1.8048,1.809,1.8145,1.8203,1.8283,1.8318,1.8388,1.846,1.8567,1.8613,1.8669,1.8678,1.8689,1.8692,1.8694,1.8692,1.8651,1.8683,1.8683,1.8683,1.8683,1.8684,0,1.7774,1.7824,1.7883,1.7966,1.8017,1.8046,1.8115,1.8156,1.8217,1.8281,1.8339,1.842,1.8488,1.8559,1.8632,1.8664,1.8682,1.8681,1.868,1.8691,1.8679,1.8666,1.8665,1.8665,1.8665,1.8665,1.8665,1.8665,1.7784,1.7847,1.7886,1.7976,1.8026,1.8095,1.8132,1.8185,1.8236,1.8324,1.8382,1.8428,1.8495,1.8574,1.8639,1.8658,1.8684,1.8678,1.8702,1.869,1.8691,1.8692,1.868,1.8683,1.8683,1.8709,1.871,1.871]}]]